GEFSCGP_con_probscp_276.txt.gz
Probability
0 0 0 0 0 0 0 0 0 0 0 0 0 0 0 0 0 0 1 2 2 1 2 3 3 3 1 0 1 2 3 3 3 3 2 1 0 0 1 1 1 1 2 3
0 0 0 0 0 0 0 0 0 0 0 0 0 0 0 0 0 0 0 1 2 1 1 2 4 3 2 1 2 3 3 3 3 3 3 2 1 1 1 2 1 1 3 4
0 0 0 0 0 0 0 0 0 0 0 0 0 0 0 0 0 1 0 0 1 2 3 4 5 4 3 3 3 4 4 3 3 4 5 5 4 3 2 1 1 1 3 5
0 0 0 0 0 0 0 0 0 0 0 0 0 0 0 0 0 0 0 0 1 2 4 7 8 6 5 4 4 4 5 4 3 4 5 6 5 4 2 1 0 0 2 4
0 0 0 0 0 0 0 0 0 0 0 0 0 0 0 0 0 0 0 1 2 3 5 8 10 8 6 5 4 3 5 4 4 5 5 5 5 5 3 2 1 1 2 3
0 0 0 0 0 0 0 0 0 0 0 0 0 0 0 0 0 0 0 1 2 3 5 8 10 8 6 5 3 2 3 4 5 6 5 5 6 6 5 4 3 3 3 3
1 0 0 0 0 0 0 1 0 0 0 0 0 0 0 0 0 0 0 0 1 3 5 8 9 7 5 4 2 1 2 4 6 6 6 7 8 8 8 6 4 3 3 3
1 0 0 0 0 0 0 0 0 0 0 0 0 0 0 0 0 0 0 0 2 4 7 9 8 6 4 3 1 0 1 3 5 6 7 9 9 8 8 7 5 4 4 4
1 0 0 0 0 0 0 0 0 0 0 0 0 0 0 0 0 0 0 1 4 6 7 9 9 7 6 4 2 1 2 3 4 6 9 9 7 7 8 9 8 8 8 8
0 0 0 0 0 0 0 0 0 0 0 0 0 0 0 0 0 0 0 3 5 6 6 8 10 10 8 6 5 5 4 4 5 7 9 8 6 6 9 11 12 12 12 12
0 0 0 0 0 0 0 0 0 0 0 0 0 0 0 0 0 1 2 4 6 5 5 7 11 12 9 7 7 8 8 7 8 9 10 9 7 7 9 11 13 14 14 14
0 0 0 0 0 0 0 0 0 0 0 0 0 0 1 1 1 2 3 4 5 4 4 7 12 13 10 8 9 10 11 11 12 14 14 12 11 9 8 9 12 15 15 14
0 0 0 0 0 0 0 0 0 0 0 0 0 0 1 2 3 5 6 5 5 5 6 9 13 13 11 10 12 15 17 17 17 18 18 16 14 13 10 9 12 14 15 14
0 0 0 0 0 1 1 0 0 0 0 0 0 1 2 3 4 8 9 9 9 9 12 14 16 15 14 15 17 20 22 20 18 18 18 17 17 16 14 13 13 14 15 15
0 0 0 0 1 2 2 1 0 0 0 0 2 3 3 3 5 9 13 16 16 17 19 20 20 19 18 19 21 22 21 18 17 16 16 16 16 17 16 16 16 15 14 14
0 0 0 0 1 2 3 2 1 1 2 2 4 5 4 4 6 10 15 19 20 20 23 24 24 24 22 22 22 20 17 14 13 13 14 15 16 16 17 17 16 14 12 12
0 0 0 0 0 1 2 2 2 4 4 5 5 4 4 5 7 9 13 17 18 20 22 23 25 27 25 22 20 17 14 14 14 14 14 15 17 18 16 15 14 12 11 9
0 0 0 0 0 0 1 1 2 4 4 4 3 3 3 6 8 9 12 15 16 18 20 21 24 25 23 19 16 11 10 13 16 16 16 17 19 18 16 13 11 11 9 7
0 0 0 0 0 0 1 1 2 2 2 1 1 2 4 7 9 10 13 16 17 18 20 21 22 20 17 14 11 8 8 12 15 15 16 18 18 16 14 11 9 9 7 5
0 0 0 0 1 1 2 3 2 1 0 0 1 3 6 9 10 11 15 19 19 19 20 22 20 15 12 10 8 6 7 11 13 13 14 16 16 14 11 9 8 7 6 5
0 0 0 1 2 3 4 4 3 1 1 1 2 4 7 10 12 13 15 17 17 16 18 20 17 13 11 10 8 6 7 10 11 12 13 14 13 12 10 8 7 7 6 4
0 0 0 1 2 4 5 5 4 2 3 3 4 5 8 12 14 14 13 13 13 14 16 17 17 14 12 11 9 8 8 9 9 10 11 12 12 11 9 7 6 6 6 4
0 0 1 3 5 6 6 6 5 4 4 5 6 8 11 14 14 13 11 10 10 12 16 17 17 15 13 12 10 10 9 9 9 9 10 10 11 10 9 8 7 7 6 5
1 1 4 8 10 9 8 7 7 5 5 6 8 10 12 13 12 11 11 11 11 14 17 18 19 17 14 12 10 10 9 8 8 8 8 9 9 10 9 9 8 8 7 6
1 1 4 7 9 9 8 7 7 7 8 8 9 10 10 11 10 11 12 13 14 17 19 21 21 19 16 12 8 7 7 8 9 8 7 6 6 8 9 9 9 8 6 5
1 1 2 4 6 6 6 5 7 9 9 9 9 9 9 9 10 12 13 15 17 19 21 22 21 20 18 12 6 5 6 8 9 7 5 4 4 5 8 9 9 7 5 3

GEFSCGP_con_probscp_282.txt.gz
Probability
0 0 0 0 0 0 0 0 0 0 0 0 0 0 0 0 0 0 0 0 0 0 0 1 2 2 1 2 5 8 9 9 7 6 6 6 5 2 0 1 2 4 5 6
0 0 0 0 0 0 0 0 0 0 0 0 0 0 0 0 0 0 0 0 0 0 0 1 2 2 1 2 5 8 10 10 8 6 5 5 5 3 1 2 3 3 4 5
0 0 0 0 0 0 0 0 0 0 0 0 0 0 0 0 0 1 1 2 2 1 1 0 1 1 1 2 5 8 10 10 9 8 6 5 6 5 4 4 3 3 3 4
0 0 0 0 0 0 0 0 0 0 0 0 0 0 0 0 0 1 2 3 4 4 3 1 2 2 2 3 4 6 8 10 10 10 9 8 7 6 6 5 5 4 3 3
0 0 0 0 0 0 0 0 0 0 0 0 0 0 0 0 0 1 2 3 3 4 4 4 4 5 5 5 4 5 8 9 10 11 12 12 10 7 7 8 9 7 4 4
1 2 1 1 0 0 0 1 1 1 0 0 0 0 0 0 0 1 2 3 3 4 5 6 6 7 8 7 6 6 7 8 8 9 11 13 12 11 12 13 13 10 6 4
2 2 2 2 1 0 1 2 2 1 0 0 0 0 0 0 0 1 2 3 3 3 4 5 6 8 10 9 8 8 7 6 6 6 8 11 13 15 16 16 14 9 6 5
1 1 3 3 1 0 1 2 2 1 0 0 1 0 0 0 0 0 1 2 2 2 3 4 6 9 10 10 9 7 7 7 7 8 9 11 13 15 16 16 12 8 6 6
0 1 3 3 2 1 1 1 1 0 0 0 1 0 0 0 1 1 1 1 2 3 4 5 6 8 9 9 8 7 8 8 10 10 10 11 13 14 15 14 11 7 7 9
1 2 3 3 3 2 1 0 0 0 0 0 1 0 0 0 1 2 3 4 5 6 6 7 7 8 8 8 8 10 10 10 11 11 11 11 12 14 15 13 11 10 11 12
0 1 2 2 2 2 2 0 0 0 0 0 0 0 0 0 1 2 5 7 8 9 8 9 9 9 7 7 10 15 16 14 12 12 12 12 11 13 14 13 12 14 14 14
0 1 1 2 2 3 2 0 0 0 0 0 0 0 0 0 1 3 7 12 14 13 13 13 13 12 11 13 17 22 24 22 17 14 14 13 12 12 12 12 12 13 14 15
0 0 0 1 2 2 1 0 0 0 0 0 0 0 0 0 1 3 9 15 19 19 19 19 17 17 18 20 24 28 30 28 23 17 15 14 13 12 13 12 11 11 12 13
0 0 0 0 1 1 1 0 0 0 0 0 0 1 2 2 2 5 10 17 22 22 23 22 21 22 24 26 28 30 31 29 26 21 17 15 15 15 15 14 12 13 13 13
0 0 0 0 0 0 0 0 0 0 0 0 0 2 4 6 7 9 13 19 23 24 23 24 25 26 29 31 30 31 30 27 25 23 20 17 18 19 18 17 16 16 16 15
0 0 0 0 0 0 0 0 0 0 0 0 0 3 6 8 10 14 17 20 24 26 26 28 30 31 35 38 37 35 32 29 27 26 23 22 21 22 21 20 20 20 19 18
0 0 0 0 0 0 0 0 0 0 0 1 3 5 7 8 10 15 19 22 24 26 27 31 34 37 39 42 42 39 36 32 29 25 23 23 24 23 22 22 23 23 21 19
0 0 0 0 0 0 0 0 1 1 1 4 7 8 8 7 7 11 15 20 24 24 25 29 35 39 41 41 40 39 36 32 27 22 20 21 22 21 19 21 24 27 25 22
0 0 0 0 0 0 0 1 2 3 4 6 8 9 8 6 6 8 13 20 25 26 26 29 34 39 42 41 39 39 36 30 25 22 21 21 21 18 17 20 23 26 26 24
1 1 0 0 0 0 0 1 2 4 5 7 8 9 10 9 9 11 16 25 30 31 31 32 34 38 43 44 42 40 36 30 25 24 25 24 23 21 20 20 20 22 23 22
1 1 0 0 0 1 2 2 4 8 11 12 12 13 14 13 12 14 19 27 31 32 32 32 32 35 40 45 45 43 38 32 28 28 28 27 24 22 21 19 18 19 20 19
4 4 3 3 2 2 4 6 10 15 18 19 18 17 16 14 12 12 16 21 26 29 29 28 29 32 37 43 46 45 41 35 33 32 31 27 24 20 18 17 17 18 18 18
8 9 10 9 7 5 6 10 14 17 21 23 21 18 15 12 10 10 12 16 21 27 28 26 25 29 34 39 42 43 41 38 37 36 33 28 24 21 18 18 17 17 17 16
11 13 15 14 11 9 10 13 14 16 20 23 21 17 14 12 10 10 10 14 20 25 27 25 24 26 31 35 37 38 38 37 36 35 32 28 25 23 21 19 17 16 16 16
12 14 16 16 13 12 13 13 14 17 19 21 20 17 14 13 11 9 10 15 21 24 25 26 25 28 33 36 36 36 35 33 30 29 28 26 25 25 22 18 15 13 13 13
12 14 15 15 15 15 13 12 14 17 18 19 19 17 15 13 11 9 11 18 22 23 24 27 28 30 35 38 37 36 34 30 26 24 23 23 25 26 23 18 13 9 8 8

GEFSCGP_con_probscp_288.txt.gz
Probability
0 0 0 0 0 0 0 0 0 0 0 0 0 1 2 2 1 1 3 6 9 10 11 10 8 7 13 22 27 26 23 22 20 17 16 14 12 12 12 12 13 16 18 17
0 0 0 0 0 0 0 0 0 0 0 0 0 0 2 2 1 0 2 5 8 11 12 12 10 10 15 23 29 28 25 25 24 20 18 16 13 11 10 12 14 16 17 17
0 0 0 0 0 0 0 0 0 0 0 0 0 0 2 3 1 0 1 4 8 11 13 13 13 13 16 24 30 29 28 28 26 23 20 18 16 13 12 14 16 16 17 17
0 0 0 0 0 0 0 0 0 0 0 0 0 0 1 2 2 1 1 4 7 10 12 13 15 16 17 22 27 30 31 29 26 24 21 19 19 18 17 17 17 16 16 17
0 0 0 0 0 0 0 0 0 0 0 0 0 0 0 2 3 3 3 4 7 9 11 12 15 17 17 18 23 29 31 29 26 23 21 20 20 20 19 19 18 17 17 17
0 0 0 0 0 0 0 0 1 1 0 0 0 0 1 2 4 4 4 6 8 10 11 13 15 17 17 18 22 27 31 30 27 24 22 20 20 20 19 19 19 19 18 18
0 0 0 0 0 0 0 1 2 2 1 0 0 1 3 4 4 4 4 6 8 10 13 15 17 18 19 21 25 30 33 32 29 26 22 21 22 22 21 20 19 20 20 20
0 0 0 0 0 1 0 1 2 2 1 0 0 2 4 4 4 4 5 7 7 9 13 18 19 19 20 23 28 34 36 34 29 27 24 21 22 23 23 22 21 21 23 23
0 0 0 0 0 0 0 1 2 2 1 0 1 2 4 5 4 5 7 8 8 11 15 19 20 20 20 24 30 36 38 34 29 27 26 25 24 25 25 24 23 24 26 27
0 0 0 0 0 0 0 0 1 1 0 0 1 2 5 6 6 6 9 11 12 14 17 20 21 21 20 24 30 35 38 36 31 29 29 30 30 30 29 27 26 27 28 29
0 0 1 1 0 0 0 0 0 0 1 0 0 2 4 7 9 10 12 15 16 17 18 21 23 21 20 22 27 32 36 36 33 32 35 36 36 36 34 32 30 30 31 32
0 0 1 2 1 0 0 0 0 1 2 1 1 3 4 7 10 14 17 19 21 20 22 24 25 23 22 23 27 31 34 35 35 37 40 41 40 40 39 37 36 36 36 35
0 1 2 3 2 1 0 0 0 0 1 1 3 4 4 5 9 15 21 24 26 26 28 30 30 30 29 30 32 33 35 37 38 38 39 41 43 43 42 41 41 42 40 38
0 1 2 2 2 1 0 0 0 0 0 1 3 4 4 4 7 14 22 28 31 33 36 38 41 42 41 40 39 38 39 41 40 37 37 41 44 44 43 43 43 43 41 38
1 1 1 1 1 0 0 0 0 0 0 0 2 5 6 7 9 15 24 30 34 39 44 48 53 55 52 49 48 47 46 47 44 40 40 43 46 45 43 42 42 43 40 38
2 2 2 1 0 0 0 0 0 0 0 1 4 8 10 12 16 23 27 31 36 43 49 54 60 62 60 57 56 53 51 49 47 44 43 45 45 43 40 38 38 39 39 37
3 4 3 2 2 1 0 0 0 0 1 3 7 10 12 15 23 30 33 35 39 45 50 55 59 62 62 59 57 53 49 47 46 45 44 44 43 40 37 34 33 34 34 33
3 4 3 3 3 2 1 1 2 2 4 8 11 13 14 18 24 32 37 41 44 48 52 54 53 55 58 57 54 50 47 46 45 43 43 42 40 37 35 33 30 29 28 28
3 3 3 2 2 1 2 4 6 6 9 14 17 18 18 18 24 32 40 47 51 53 53 51 47 47 53 56 55 50 46 45 43 42 42 41 38 34 32 32 31 28 26 26
1 2 2 1 1 2 5 9 10 11 15 22 25 25 23 23 28 36 43 50 54 56 54 50 46 47 52 58 58 53 47 44 43 41 40 39 36 33 32 32 32 29 26 25
1 1 1 1 1 3 8 12 14 17 23 28 30 31 31 33 37 41 46 49 51 53 53 50 48 49 52 57 58 53 48 45 43 40 39 38 35 32 32 33 32 29 26 25
1 2 3 4 6 11 14 16 20 25 30 34 35 36 38 40 41 44 46 46 46 47 48 47 48 50 54 56 56 52 47 45 44 43 42 40 35 30 30 33 32 28 26 25
3 6 9 11 15 21 22 22 25 28 31 34 35 35 38 40 41 42 43 43 43 43 44 45 48 50 52 55 55 51 46 44 44 45 46 41 34 28 29 30 29 26 24 22
8 10 14 18 21 23 23 24 25 25 26 29 33 35 36 37 36 35 37 40 42 42 42 43 46 47 47 49 51 48 44 43 45 46 45 39 33 29 29 29 27 24 22 21
11 13 16 21 21 19 20 21 21 21 22 26 33 37 38 35 30 26 29 35 38 38 38 39 43 44 42 43 45 44 41 42 44 44 40 35 31 29 28 26 23 21 19 17
11 15 20 21 20 19 20 20 19 19 22 27 34 39 39 34 27 22 24 30 35 34 35 38 40 41 39 39 42 42 40 41 44 43 37 32 30 30 27 23 20 18 15 11

GEFSCGP_con_probscp_294.txt.gz
Probability
0 0 0 0 0 0 0 0 0 0 0 0 0 0 0 0 0 1 2 3 5 6 5 4 8 14 16 14 12 9 8 9 7 5 4 3 3 3 2 1 0 1 4 7
0 0 0 0 0 0 0 0 0 0 0 0 1 1 0 0 0 1 2 5 7 7 5 3 6 12 14 13 12 10 11 13 11 8 6 5 4 3 2 1 0 1 4 7
0 0 0 0 0 0 0 0 0 0 0 0 1 1 0 0 1 2 4 6 8 8 6 3 5 9 11 12 12 11 12 15 14 11 9 8 5 3 2 1 1 1 3 5
0 0 0 0 0 0 0 0 0 0 0 0 1 1 0 0 1 4 5 5 6 7 7 6 6 7 9 11 13 12 11 13 13 12 10 9 7 5 4 4 3 3 4 5
0 1 1 0 0 0 0 0 0 0 0 0 0 0 0 0 1 4 5 4 5 6 9 9 9 8 9 12 15 15 13 13 13 11 9 9 8 7 7 6 5 4 4 5
1 1 1 0 0 0 0 0 0 0 0 0 0 0 0 1 1 2 3 3 4 6 10 11 11 11 11 14 18 19 17 16 15 13 10 9 8 8 9 9 8 7 6 5
0 1 1 0 0 0 0 0 0 0 0 0 0 0 0 0 0 0 2 3 4 7 10 12 14 15 14 15 19 21 20 18 18 17 13 10 9 9 10 11 11 10 8 6
0 0 0 0 0 0 0 0 0 0 0 0 0 0 0 1 1 1 2 4 4 7 12 15 16 16 16 16 19 21 20 19 20 20 17 13 11 10 10 11 11 10 8 8
0 0 0 0 0 0 0 0 0 0 0 0 0 0 1 2 3 3 4 6 7 9 15 18 17 16 16 16 19 21 21 21 22 21 18 14 12 10 9 9 10 10 9 10
0 0 0 0 1 1 1 0 0 0 0 0 0 0 1 3 5 6 7 9 10 12 16 18 17 15 15 16 17 19 19 21 23 24 20 15 11 9 8 8 8 9 10 11
0 0 0 0 1 2 1 0 0 0 0 0 0 0 1 4 6 7 9 10 11 14 16 17 18 17 16 15 14 16 19 22 26 27 24 18 12 9 9 9 8 8 9 9
0 0 0 1 1 1 1 0 0 0 0 0 0 1 2 4 5 6 8 9 11 16 18 19 21 21 20 18 17 18 21 26 29 29 27 23 17 13 12 10 10 10 10 10
0 0 0 1 1 1 0 0 0 0 0 0 0 1 2 4 5 6 7 9 12 16 19 21 22 21 22 23 24 24 26 29 30 30 29 26 22 18 16 12 12 13 14 14
0 0 0 1 1 0 0 0 0 0 0 0 0 0 1 4 6 8 9 11 12 15 18 22 21 19 20 25 28 29 29 30 31 31 29 27 25 23 21 17 15 15 13 12
0 0 0 0 0 0 0 0 0 0 0 1 2 2 2 4 6 8 11 12 13 14 18 21 20 18 20 25 28 29 30 31 32 32 30 28 25 25 24 21 20 16 10 7
0 0 0 0 0 0 1 1 0 1 2 4 6 6 5 5 6 9 12 13 13 14 17 19 19 19 22 26 28 28 29 29 30 31 30 28 26 26 24 23 21 16 9 5
0 0 0 0 0 1 2 3 2 3 5 7 9 10 11 10 10 11 12 13 14 15 17 18 19 21 24 26 27 27 28 28 27 29 31 31 31 29 25 23 21 15 9 7
0 0 0 0 1 3 4 5 5 5 7 9 12 16 17 18 18 18 17 17 18 18 17 18 20 23 25 27 28 29 29 28 27 29 32 34 35 32 27 22 19 14 10 8
0 0 0 0 1 2 3 4 6 7 8 11 16 20 22 22 23 23 24 25 24 21 20 20 22 26 29 30 31 31 30 29 28 30 32 35 35 33 28 22 18 14 11 9
0 0 0 0 0 1 2 5 5 5 7 11 16 19 20 20 21 22 25 29 29 26 24 24 26 28 31 31 30 30 29 28 27 28 30 32 33 31 27 23 20 16 12 9
0 0 0 0 0 0 3 6 6 4 6 11 15 15 15 17 18 19 24 30 32 31 28 27 27 27 27 27 27 26 27 27 25 26 27 28 29 28 26 23 21 17 13 11
1 1 0 0 0 0 2 6 6 6 8 14 16 15 14 16 19 22 25 29 32 33 32 30 28 25 24 25 24 24 25 25 25 25 26 26 26 26 24 21 20 18 14 12
1 1 1 1 1 1 3 5 7 8 11 15 18 18 17 17 19 22 23 25 27 29 30 29 27 25 23 22 21 20 21 22 23 26 27 26 25 24 22 20 20 18 15 13
2 3 4 5 5 5 6 8 9 11 13 15 16 16 16 17 18 18 18 19 20 23 24 23 22 21 19 18 17 16 15 16 20 24 26 25 24 22 21 21 21 20 17 15
3 4 6 8 9 8 8 10 12 14 15 15 13 13 13 14 14 14 14 14 15 17 18 16 14 13 14 14 14 12 12 13 16 20 22 23 22 20 20 20 20 18 16 14
3 5 8 10 10 8 8 9 13 16 16 14 12 10 10 10 9 11 12 12 13 15 16 13 10 11 12 13 13 11 11 12 14 18 20 22 22 20 19 19 17 14 13 12

GEFSCGP_con_probscp_300.txt.gz
Probability
0 0 0 0 0 0 0 0 0 0 0 0 0 0 0 0 0 0 1 1 0 1 2 5 7 6 4 1 0 0 0 0 0 1 1 1 1 0 0 0 0 1 1 1
0 0 0 0 0 0 0 0 0 0 0 0 0 0 0 0 0 1 1 1 0 0 2 5 7 6 4 3 2 1 1 1 1 2 3 2 2 1 1 0 0 1 2 2
0 0 0 0 0 0 0 0 0 0 0 0 0 0 0 1 1 1 1 1 0 0 2 5 6 6 6 6 6 5 4 3 3 4 4 4 3 2 1 0 0 1 3 4
0 0 0 0 0 0 0 0 0 0 0 0 0 0 0 1 2 1 1 1 1 1 2 4 6 7 8 9 9 8 6 4 4 4 5 4 3 2 1 0 0 1 3 4
0 0 0 0 0 0 0 0 0 0 0 0 0 0 0 1 1 1 2 2 2 2 2 3 5 6 8 9 9 9 7 5 5 6 7 6 4 2 1 1 1 1 3 4
1 0 0 0 0 0 0 0 0 0 0 0 0 0 0 1 1 2 3 3 3 3 3 3 4 4 5 6 7 7 7 6 7 9 11 10 6 4 3 3 3 3 4 5
2 1 0 0 0 0 0 0 0 0 0 0 0 0 1 2 2 3 3 3 3 3 3 4 3 3 3 5 7 7 7 8 9 11 13 12 9 5 3 4 4 5 5 5
2 1 0 0 0 0 0 0 0 0 0 0 0 1 2 3 3 4 4 4 4 4 4 4 4 3 4 6 9 10 10 10 10 11 12 12 10 6 4 3 4 4 4 4
1 1 0 0 0 0 0 0 0 0 0 0 0 1 2 2 3 5 5 4 4 5 4 4 3 3 3 6 10 13 12 12 11 12 12 11 10 8 5 3 3 3 3 3
1 1 1 0 0 0 0 0 0 0 0 0 0 0 1 1 2 4 4 3 3 4 4 3 2 3 3 5 9 12 13 12 12 12 13 12 11 9 7 4 3 3 3 3
1 1 1 0 0 0 0 0 0 0 0 0 0 0 0 0 1 2 2 1 2 3 3 2 1 2 3 5 7 10 12 12 13 14 15 14 13 12 10 7 6 4 4 4
0 1 1 1 1 0 0 0 0 0 0 0 0 0 0 0 0 1 1 1 2 3 3 2 2 4 6 8 10 10 12 14 15 16 18 16 14 13 12 10 8 7 5 4
0 1 2 2 1 0 0 0 0 0 0 0 0 0 0 1 1 1 1 2 3 4 5 5 5 7 8 11 13 12 13 16 17 17 18 17 15 13 12 11 10 8 6 4
0 1 1 1 1 0 0 0 0 0 0 0 0 0 0 1 3 3 2 3 5 7 8 9 9 8 8 10 12 13 14 15 15 14 15 15 15 15 14 13 11 8 6 5
0 0 0 0 0 0 0 0 0 0 0 0 0 0 0 1 3 3 3 4 6 8 9 10 10 9 9 10 11 11 11 12 12 12 14 16 17 16 15 14 11 8 6 6
0 0 0 0 0 0 0 0 0 0 0 0 0 0 0 2 4 4 5 5 6 7 9 10 10 9 10 12 11 9 8 10 12 14 16 18 17 15 13 11 10 9 7 7
0 0 0 0 0 0 0 0 0 1 1 0 0 0 1 3 5 5 5 7 7 8 8 8 8 8 10 12 10 8 8 12 16 17 18 18 15 13 11 11 11 11 9 7
0 0 0 0 1 0 0 0 1 2 1 1 0 1 2 4 4 3 3 6 9 9 9 8 7 8 9 10 9 10 13 17 21 21 18 14 12 11 12 13 14 14 12 10
0 0 0 0 0 0 0 0 1 2 3 2 2 2 4 6 5 2 2 5 9 11 12 11 10 10 9 9 10 13 16 20 22 21 18 14 11 12 14 15 16 17 15 13
0 0 0 0 0 0 0 0 1 2 3 3 4 5 6 8 7 3 2 5 9 13 14 14 14 13 11 10 11 14 15 17 17 17 17 15 14 14 16 17 18 19 18 16
0 0 0 0 0 0 0 0 1 3 3 4 6 7 8 8 6 4 5 8 11 13 14 14 14 14 11 9 10 12 12 11 11 13 15 16 17 17 18 18 19 19 19 18
0 0 0 0 1 0 0 0 2 2 2 5 8 8 8 7 6 7 9 11 14 14 12 11 12 13 12 10 9 9 10 10 10 10 12 14 17 18 18 19 18 19 19 18
1 0 0 0 0 0 0 0 1 1 2 4 6 7 6 5 6 10 10 12 14 13 10 9 10 13 13 11 9 8 8 9 9 8 9 11 15 17 19 18 18 18 18 17
1 0 0 0 0 1 1 1 1 2 3 5 5 4 2 2 5 8 8 9 11 11 9 8 8 11 12 10 8 7 7 7 7 7 7 9 12 16 18 18 17 17 16 15
1 0 0 0 0 1 2 2 3 5 6 6 5 2 0 1 2 4 4 5 6 7 8 7 6 7 8 8 7 6 6 6 6 6 7 8 10 13 16 17 16 15 14 13
0 0 0 0 0 1 1 2 5 7 7 6 4 1 0 0 1 1 1 2 4 6 7 7 5 5 6 7 7 6 6 6 6 6 7 8 10 11 14 16 14 13 13 12

GEFSCGP_con_probscp_306.txt.gz
Probability
0 0 0 0 0 0 0 0 0 0 0 0 0 0 0 0 0 1 2 5 6 6 6 6 6 8 11 12 12 9 6 6 7 8 7 6 6 5 4 3 3 3 4 5
0 0 0 0 0 0 0 0 0 0 0 0 0 0 0 0 0 2 4 5 5 5 5 6 7 8 10 12 12 10 8 7 7 8 7 7 6 5 4 4 4 4 5 6
0 0 0 0 0 0 0 0 0 0 0 0 0 0 1 1 1 4 6 7 6 5 5 6 7 9 10 10 10 10 10 9 9 9 9 8 7 6 5 5 6 6 6 6
0 0 0 0 0 0 0 0 0 0 0 0 0 0 1 2 3 5 8 9 9 8 6 6 7 8 8 8 9 9 10 11 11 11 10 9 9 8 8 8 7 6 6 6
0 0 0 0 0 0 0 0 0 0 0 0 0 0 1 1 3 6 7 8 9 8 7 6 7 8 8 9 9 10 11 12 12 11 10 10 10 9 10 9 7 6 6 6
0 0 0 0 0 0 0 0 0 0 0 0 0 0 1 1 3 6 7 7 7 7 6 6 7 9 10 11 12 12 12 13 13 12 11 12 12 12 10 9 7 6 6 6
0 0 0 0 0 0 0 0 0 0 0 0 0 1 2 3 4 6 7 7 6 5 4 4 7 9 10 12 14 14 16 17 16 14 14 15 16 15 12 9 7 6 7 7
0 0 0 0 0 0 0 0 0 0 0 0 0 1 3 4 5 6 7 7 6 5 4 5 9 10 10 11 14 16 20 21 19 16 16 19 20 19 17 14 10 9 9 10
0 0 0 0 0 0 0 0 0 0 0 0 1 2 3 3 4 5 6 5 4 4 4 6 10 12 9 9 11 14 20 22 20 18 18 21 24 25 24 22 18 15 14 15
0 0 0 0 0 0 0 0 0 0 0 0 1 2 3 3 3 4 4 4 3 3 4 6 9 11 9 6 7 10 15 20 20 19 19 20 24 27 28 27 25 21 19 20
0 0 0 0 0 0 0 0 0 0 0 0 0 1 3 3 3 3 5 5 4 2 3 5 7 10 9 6 5 7 11 16 19 19 18 19 22 26 26 26 25 22 23 25
0 0 0 0 0 0 0 0 0 0 0 0 0 1 2 3 3 3 6 7 6 4 4 5 7 10 11 9 7 9 11 15 19 21 19 18 21 25 27 26 24 24 25 28
0 0 0 0 1 0 0 0 0 0 0 0 0 0 1 3 3 4 6 7 6 5 4 5 8 12 15 14 14 14 15 17 20 24 23 20 22 26 28 28 28 28 29 30
0 0 0 0 0 0 0 0 0 0 0 0 0 0 1 2 3 5 6 6 6 5 5 6 9 13 16 18 19 20 21 21 22 24 24 23 25 28 30 30 30 31 31 31
0 0 0 0 0 0 0 0 0 0 0 1 1 1 1 2 3 5 6 7 6 6 6 6 9 13 16 19 21 22 24 25 25 25 26 27 30 32 31 29 28 29 29 27
0 0 0 0 0 0 0 0 0 0 0 1 1 1 1 1 2 3 6 8 8 8 7 7 10 13 15 20 22 23 27 29 30 31 31 32 33 33 30 27 25 25 24 22
0 0 0 0 0 0 0 0 0 0 0 1 1 1 2 2 2 3 6 9 10 10 9 8 11 15 17 20 24 27 31 34 35 34 33 33 33 31 29 25 23 21 18 16
0 0 0 0 0 0 0 1 0 0 0 0 1 3 4 2 2 4 7 10 12 12 12 12 15 19 20 22 25 29 33 35 34 31 29 29 29 29 27 25 22 19 17 16
0 0 0 0 0 0 1 2 1 0 0 0 2 4 5 4 3 6 10 12 14 16 16 18 20 22 24 25 26 28 30 31 29 26 25 26 27 27 26 24 21 20 19 19
1 1 0 0 1 1 3 4 2 1 1 2 3 4 6 7 7 11 16 17 19 20 21 21 23 25 26 26 27 27 26 26 25 24 24 25 26 26 26 24 21 20 22 22
1 1 1 1 1 2 3 4 4 4 5 6 4 4 7 11 15 21 24 23 22 22 22 22 24 27 27 28 29 27 25 24 24 23 23 23 24 25 25 23 20 19 21 22
2 2 3 3 2 2 3 4 6 8 11 12 10 8 11 16 22 28 28 26 23 23 22 22 25 28 27 28 29 28 26 25 24 23 23 24 24 23 22 21 19 18 19 20
4 4 5 5 2 2 3 4 8 11 14 17 16 15 16 20 25 29 28 26 24 22 22 23 25 27 27 25 25 26 25 24 24 23 23 23 22 20 20 20 19 17 17 17
6 8 9 7 4 2 4 6 9 11 13 16 17 18 20 23 26 27 26 25 24 22 21 22 23 25 25 22 20 21 21 22 23 22 20 20 19 19 19 20 18 17 16 15
8 11 11 9 6 6 8 11 13 14 14 16 17 19 22 25 27 26 23 22 22 21 19 18 19 21 21 19 16 15 16 18 20 19 17 18 18 18 18 18 17 15 14 13
9 11 10 7 8 10 13 15 17 17 16 17 19 21 24 26 27 25 21 19 20 19 17 15 16 16 17 16 14 12 12 15 18 17 16 16 17 18 17 16 15 14 12 10

GEFSCGP_con_probscp_312.txt.gz
Probability
0 0 0 0 0 0 0 0 0 1 0 0 0 0 1 0 1 3 7 11 13 12 13 15 14 13 17 22 27 28 25 22 19 14 11 12 11 10 11 11 11 10 9 9
0 0 0 0 0 0 0 0 0 1 0 0 0 1 2 1 1 3 7 12 13 13 15 17 15 13 16 20 24 27 26 23 20 17 14 13 13 13 13 12 11 11 11 12
0 0 0 0 0 0 0 0 0 0 0 0 0 2 3 2 1 2 6 11 13 14 18 19 16 13 14 18 22 25 28 26 23 20 17 14 14 14 13 11 10 11 13 15
0 0 0 0 0 0 0 0 0 0 1 1 0 2 4 3 1 2 5 10 13 16 19 19 17 14 15 18 22 28 32 31 26 22 18 15 14 13 12 10 11 13 15 16
0 0 0 0 0 0 0 0 0 0 1 1 0 2 4 3 3 4 7 10 14 17 19 21 20 17 17 19 25 32 36 34 30 24 19 17 16 15 14 13 14 18 20 19
0 0 0 0 0 0 0 0 0 0 0 0 0 1 3 4 5 8 10 12 15 18 21 23 24 22 20 22 27 34 38 37 33 26 21 19 19 19 19 19 21 24 25 23
0 0 0 0 0 0 0 0 0 0 0 0 0 1 3 5 7 11 12 12 14 18 19 22 25 25 24 25 30 37 41 41 37 30 25 23 23 23 23 24 25 26 26 26
0 0 0 0 0 0 0 0 0 0 0 0 0 1 3 6 9 11 11 10 11 13 14 17 20 23 24 27 32 39 44 44 40 34 31 31 30 27 26 26 25 24 25 25
0 0 0 0 0 0 0 0 0 0 0 0 0 1 4 7 9 10 9 9 9 8 8 12 15 19 22 25 31 38 43 45 43 39 38 38 37 34 31 29 25 25 25 25
0 0 0 0 0 0 0 0 0 0 0 0 0 1 5 9 11 10 10 10 9 6 5 9 13 17 21 25 29 35 40 44 44 42 41 40 41 40 37 33 30 31 33 32
0 0 0 0 0 0 0 0 0 0 1 0 0 1 3 8 11 12 10 10 9 6 5 8 12 16 21 24 27 32 37 41 42 42 41 41 44 45 42 38 37 39 40 40
0 0 0 0 0 0 0 0 0 0 0 0 0 1 2 5 9 12 12 12 14 15 13 12 14 18 22 25 27 29 34 38 40 40 42 44 46 46 45 42 42 42 43 43
0 0 0 0 0 0 0 0 0 0 0 0 1 2 3 5 10 15 17 19 23 25 23 19 20 25 28 29 30 30 32 35 38 38 40 44 46 46 44 43 43 43 44 44
0 0 0 0 0 0 0 0 0 0 0 0 1 3 6 9 14 19 22 26 29 29 27 26 28 33 36 36 36 34 32 33 36 37 38 43 46 44 42 43 43 43 42 40
0 0 0 0 0 0 0 0 0 0 0 0 1 3 8 13 19 22 26 29 31 30 29 31 32 35 39 41 42 40 36 35 36 38 39 42 42 40 40 42 42 41 39 35
1 2 1 0 0 0 0 0 0 0 0 0 1 4 9 16 22 24 28 31 32 32 32 35 38 40 42 44 46 45 42 39 38 40 40 39 39 39 38 38 37 37 36 33
6 6 3 0 0 0 0 0 1 1 1 2 4 6 11 17 23 26 29 31 31 32 35 39 45 47 47 47 49 49 47 44 42 41 39 37 37 38 37 35 33 33 33 33
8 9 5 1 0 0 0 1 2 3 5 6 7 8 12 17 21 27 30 31 32 34 38 44 48 50 48 46 47 49 46 44 42 40 38 37 36 35 35 35 34 34 34 34
5 6 5 2 1 0 1 1 2 5 7 9 9 10 12 15 19 25 30 32 34 36 40 44 46 45 45 43 44 44 42 38 36 36 36 35 34 33 33 35 35 35 35 34
2 3 4 3 2 1 1 1 2 5 8 11 13 14 14 15 20 27 32 35 36 38 41 42 40 38 40 43 43 41 38 35 34 33 33 32 32 32 33 33 33 32 31 31
1 2 2 3 3 3 3 3 5 11 15 15 16 18 19 21 27 32 35 37 37 39 41 41 38 35 38 43 43 40 38 36 36 33 31 30 30 29 29 29 28 27 26 26
4 4 5 6 6 6 7 8 14 21 22 18 18 20 22 27 33 35 36 38 38 39 41 41 40 38 39 41 40 37 36 35 36 33 30 29 28 26 24 25 25 25 24 23
8 9 11 11 9 9 11 16 22 26 22 18 19 20 24 29 34 36 39 40 39 39 41 41 40 39 38 36 32 29 30 32 33 32 30 29 27 24 22 22 23 23 22 21
9 11 13 13 12 13 16 20 24 24 21 19 18 20 24 30 34 38 41 41 38 38 40 40 38 36 33 28 23 21 25 28 31 31 31 29 26 24 24 23 22 21 20 19
11 12 14 15 16 18 21 21 20 21 22 21 20 21 26 31 36 38 39 39 37 37 38 37 36 33 28 23 18 17 21 25 28 29 29 28 25 24 24 22 19 17 16 16
15 16 17 18 21 24 24 20 18 19 20 21 22 24 27 31 35 37 38 38 37 36 36 35 33 30 25 20 17 16 19 24 27 26 26 25 24 24 23 19 15 13 14 14

GEFSCGP_con_probscp_318.txt.gz
Probability
0 0 0 0 0 0 0 0 0 0 0 1 2 2 2 1 4 7 10 12 12 13 14 11 7 6 6 6 4 4 4 4 5 7 7 7 7 9 7 4 2 3 4 3
0 0 0 0 0 0 0 0 0 0 0 1 1 1 1 1 3 7 11 14 14 14 14 12 10 11 10 8 7 6 5 5 5 7 8 7 7 7 6 4 3 3 4 4
0 0 0 0 0 0 0 0 0 0 0 0 0 0 0 0 1 5 10 15 17 17 14 13 13 16 16 14 12 11 8 7 8 10 9 7 6 7 6 5 3 2 2 3
0 0 0 0 0 0 0 0 0 0 0 0 0 0 0 1 2 4 10 16 20 19 16 15 15 17 19 18 17 15 13 12 13 14 11 8 7 7 7 7 5 3 3 4
0 0 0 0 0 0 0 0 0 0 0 0 0 0 0 1 2 4 10 17 20 20 19 19 19 19 19 19 18 17 15 15 16 17 14 11 8 7 7 7 7 6 6 7
0 0 0 0 0 0 0 0 0 0 0 0 0 0 0 1 2 4 10 16 19 19 20 23 22 20 19 19 17 16 16 17 18 18 16 13 10 7 6 6 6 8 9 10
0 0 0 0 0 0 0 0 0 0 0 0 0 0 0 1 2 5 9 14 16 17 19 22 21 19 19 18 16 14 16 19 20 19 16 13 11 8 7 6 7 9 12 14
0 0 0 0 0 0 0 0 0 0 0 0 0 0 1 1 3 6 9 11 13 15 18 19 18 17 18 18 16 15 17 21 21 18 15 13 12 11 11 10 10 11 13 15
0 0 0 0 0 0 0 0 0 0 0 0 0 1 2 3 5 7 10 11 11 13 16 16 16 17 19 19 16 15 17 20 20 18 17 15 15 15 15 14 13 12 12 12
0 0 0 0 0 0 0 0 0 0 0 0 0 2 3 4 5 7 10 11 10 12 15 15 17 19 22 22 18 16 17 20 21 20 20 19 17 15 14 13 12 12 11 10
0 0 0 0 0 0 0 0 0 0 0 0 0 1 2 4 6 9 12 12 12 14 16 18 20 21 22 24 23 21 21 22 22 21 21 21 18 14 13 12 11 11 12 12
0 0 0 0 0 0 0 0 0 0 0 0 0 0 2 4 7 12 16 15 15 16 19 23 26 25 23 24 26 26 25 24 23 21 21 22 21 18 15 13 12 12 13 13
0 0 0 0 0 0 0 0 0 0 0 0 0 1 3 6 9 14 18 18 18 19 22 26 29 28 26 25 25 25 23 21 20 21 22 22 22 22 20 17 15 15 14 13
0 0 0 0 0 0 0 0 0 0 0 0 1 3 5 8 11 15 18 20 20 21 24 27 28 28 26 24 23 22 19 15 15 18 20 20 20 22 22 20 18 18 17 15
0 0 0 0 0 0 0 0 0 1 1 1 3 5 6 9 12 14 18 20 20 21 24 28 30 26 23 21 20 20 18 14 13 15 17 18 18 19 20 20 20 20 20 20
0 0 0 0 0 0 0 0 1 2 3 3 6 8 9 10 13 14 17 19 19 20 22 28 31 27 21 19 18 18 18 17 15 15 17 18 19 18 17 18 20 22 23 23
0 0 0 0 0 0 1 2 4 6 6 6 7 9 11 14 15 15 16 19 22 22 23 26 29 27 22 19 18 18 18 19 20 19 18 18 20 20 18 18 19 21 22 21
0 0 0 0 0 1 2 4 7 9 10 8 9 11 13 15 16 17 18 21 25 26 25 24 24 22 20 19 19 18 19 21 22 21 18 17 20 21 20 18 18 19 17 15
0 0 0 0 0 1 2 3 5 9 10 10 12 15 14 14 16 17 18 21 24 27 26 23 20 18 17 17 17 17 17 19 21 20 18 17 19 22 22 19 18 17 14 12
0 0 0 0 1 2 3 2 2 5 7 8 13 15 14 13 13 14 16 18 21 24 23 21 20 18 14 13 14 15 14 15 17 18 17 17 19 21 22 19 17 16 15 13
0 0 0 0 2 3 4 5 4 3 3 5 10 13 12 11 13 15 18 19 21 22 22 22 21 18 13 11 12 13 12 12 12 14 17 18 19 21 20 17 15 15 15 16
1 0 0 0 2 3 6 9 9 6 4 6 9 11 12 13 17 21 22 22 24 24 24 24 22 18 13 11 11 11 11 9 9 11 15 17 19 19 18 16 14 15 16 17
2 1 2 3 4 5 9 12 11 9 9 10 12 13 16 19 22 25 24 23 25 26 23 22 20 17 13 11 10 9 8 8 8 9 12 15 16 16 16 15 15 16 18 19
5 4 5 7 7 8 10 12 11 11 12 13 14 16 20 23 24 24 23 23 24 23 20 17 15 14 13 12 11 10 8 8 8 8 10 13 14 13 12 13 15 16 18 20
8 7 7 8 8 8 10 11 11 11 12 13 15 18 22 24 23 22 22 22 21 19 16 14 12 11 12 13 12 11 10 9 9 9 10 12 12 9 8 10 12 14 16 17
10 8 7 8 7 8 10 11 11 12 13 13 15 18 21 23 22 21 22 21 18 16 14 13 11 10 12 13 13 12 11 11 11 10 11 12 11 7 6 8 9 10 12 13